Regional Weather Roundup
Issued by NWS

Home | Current Version | Previous Version | Graphics & Text | Print | Product List | Glossary On
Versions: 1 2 3 4 5 6 7 8 9 10 11 12 13 14 15 16 17 18 19 20 21 22 23 24 25 26 27 28 29 30 31 32 33 34 35 36 37 38 39 40 41 42 43 44 45 46 47 48 49 50
000
ASUS43 KDMX 010907
RWRIA

WEATHER ROUNDUP FOR IOWA
NATIONAL WEATHER SERVICE DES MOINES IA
400 AM CDT MON SEP 01 2014

NOTE: "FAIR" INDICATES FEW OR NO CLOUDS BELOW 12,000 FEET WITH NO
SIGNIFICANT WEATHER AND/OR OBSTRUCTIONS TO VISIBILITY.

* - THESE STATIONS ARE NOT NWS STATIONS...THUS NOT UNDER NWS
QUALITY CONTROL.  THEY ALSO DO NOT REPORT WEATHER SUCH
AS PRECIPITATION OR FOG.

IAZ001>003-012>014-020>022-031>034-043>046-011000-
   NORTHWEST IOWA

CITY           SKY/WX    TMP DP  RH WIND       PRES   REMARKS
CARROLL *      CLOUDY    68  64  88 SW13      29.69S
CHEROKEE *     CLOUDY    64  64 100 SW6       29.69F FOG
DENISON *      CLOUDY    66  66 100 SW6       29.70R
LE MARS *        N/A     63  63 100 S3        29.72R
ORANGE CITY *  CLEAR     63  59  88 W5        29.72R
SHELDON *      CLOUDY    63  63 100 W6        29.70R
SIOUX CITY     PTCLDY    63  61  93 NW6       29.72R
SPENCER        CLOUDY    65  63  93 SW8       29.69S
STORM LAKE *   CLOUDY    64  64 100 SW7       29.69F
$$

IAZ055>058-069>071-079>083-090>094-011000-
   SOUTHWEST IOWA

CITY           SKY/WX    TMP DP  RH WIND       PRES   REMARKS
ATLANTIC *     CLOUDY    68  64  88 S14G21    29.71R
AUDUBON *      MOCLDY    70  66  88 S10G18    29.72S
CLARINDA *     PTCLDY    66  64  94 S10G17    29.74R
COUNCIL BLFS * CLOUDY    68  68 100 S10       29.72R
CRESTON *      CLOUDY    66  64  94 S21       29.73F
HARLAN  *      CLOUDY    66  66 100 SW12      29.75R
LAMONI         LGT RAIN  67  63  87 S12G22    29.74F
RED OAK *      CLOUDY    68  66  94 S15       29.72S
SHENANDOAH *   CLOUDY    68  66  94 S14       29.73S
$$

IAZ047>049-059>061-072>074-084-011000-
   CENTRAL IOWA

CITY           SKY/WX    TMP DP  RH WIND       PRES   REMARKS
AMES           CLOUDY    66  64  93 S7        29.71S
ANKENY *       MOCLDY    68  64  88 S7        29.71F
CHARITON *     CLOUDY    66  64  94 S10       29.75F
DES MOINES     CLOUDY    68  63  84 S13       29.71F
GRINNELL*      CLOUDY    66  64  94 S10       29.76F
KNOXVILLE *    MOCLDY    66  64  94 SE7       29.74F
MARSHALLTOWN   CLOUDY    66  63  90 S10       29.72R
PELLA *        CLOUDY    66  64  94 S8        29.77F
PERRY *        CLOUDY    68  64  88 S14       29.69F
$$

IAZ004>006-015-016-023>025-035-036-011000-
   NORTH CENTRAL IOWA

CITY           SKY/WX    TMP DP  RH WIND       PRES   REMARKS
ALGONA *       CLOUDY    66  66 100 S7        29.68S
CLARION *      CLOUDY    64  64 100 S8        29.69F
ESTHERVILLE    CLOUDY    64  63  96 SW7       29.68R
FORT DODGE *   CLOUDY    66  64  94 S12       29.70F
MASON CITY     CLOUDY    66  63  90 SW15      29.70S
FOREST CITY *  LGT RAIN  64  64 100 S8        29.68F
IOWA FALLS *   CLOUDY    64  63  94 S8        29.71F
$$

IAZ007>011-017>019-026>030-037>042-050>054-066-011000-
   NORTHEAST IOWA

CITY           SKY/WX    TMP DP  RH WIND       PRES   REMARKS
CEDAR RAPIDS   CLOUDY    64  64 100 SE13      29.71F
CHARLES CITY * MOCLDY    64  63  94 S7        29.69F
CLINTON *      CLOUDY    64  63  94 NW5       29.83S
DECORAH *      MOCLDY    63  63 100 S8        29.68R
DUBUQUE        RAIN      64  63  96 SE10      29.78F
MONTICELLO *   LGT RAIN  66  64  94 E8G16     29.71F
OELWEIN *      MOCLDY    64  63  94 SE9       29.71F
WATERLOO       CLOUDY    65  63  93 SE13      29.69S
$$

IAZ064-065-067-068-078-011000-
   EAST CENTRAL IOWA

CITY           SKY/WX    TMP DP  RH WIND       PRES   REMARKS
DAVENPORT      LGT RAIN  65  62  90 NE9       29.79F
IOWA CITY      CLOUDY    65  65 100 SE12      29.75F
MT. PLEASANT * RAIN      66  64  94 E5        29.79S
MUSCATINE *    PTCLDY    68  64  88 SE7G15    29.77F
QUAD CITIES    LGT RAIN  67  64  90 NE3       29.78F
$$

IAZ062-063-075>077-085>089-095>099-011000-
   SOUTHEAST IOWA

CITY           SKY/WX    TMP DP  RH WIND       PRES   REMARKS
BURLINGTON     LGT RAIN  67  65  93 VRB6      29.79F
FAIRFIELD *    LGT RAIN  66  64  94 SE15      29.78F
FORT MADISON * PTCLDY    68  66  94 E5        29.80F
KEOKUK *       MOCLDY    70  66  88 E6        29.79S
OSKALOOSA *    MOCLDY    66  64  94 S5        29.79R
CENTERVILLE *  CLEAR     66  66 100 S5        29.80F
OTTUMWA        LGT RAIN  66  64  93 VRB3      29.77R
WASHINGTON *   CLOUDY    66  66 100 SE10      29.79R
$$

ABBREVIATIONS USED IN REMARKS
   TC - TEMPERATURES IN CELSIUS
  WCI - WIND CHILL INDEX
   HX - HEAT INDEX
  VSB - VISIBILITY
$$




USA.gov is the U.S. government's official web portal to all federal, state and local government web resources and services.